• In Hungary
  • List of Countries
  • For 7 days
  • Water Temperature
  • Satellite Maps
  • Weather Map
  • News
  • Weather Widgets
  • user-avatar
    Login

    Hourly Weather Jedlina

    Today, 25 June, Monday

    Time Temperature Precipitation Wind Pressure Humidity
    00:00 +12°C° 0.1 mm 2 mps 742 mmHg 93%
    01:00 +12°C° 0.1 mm 2 mps 742 mmHg 94%
    02:00 +12°C° 0 mm 2 mps 742 mmHg 94%
    03:00 +12°C° 0 mm 1 mps 742 mmHg 94%
    04:00 +11°C° 0 mm 1 mps 742 mmHg 95%
    05:00 +12°C° 0 mm 1 mps 743 mmHg 92%
    06:00 +13°C° 0 mm 2 mps 743 mmHg 89%
    07:00 +14°C° 0 mm 2 mps 743 mmHg 86%
    08:00 +15°C° 0 mm 2 mps 743 mmHg 82%
    09:00 +16°C° 0 mm 2 mps 743 mmHg 78%
    10:00 +16°C° 0 mm 2 mps 743 mmHg 73%
    11:00 +18°C° 0 mm 2 mps 743 mmHg 67%
    12:00 +19°C° 0 mm 2 mps 743 mmHg 62%
    13:00 +20°C° 0 mm 3 mps 743 mmHg 56%
    14:00 +20°C° 0.1 mm 2 mps 743 mmHg 56%
    15:00 +20°C° 0.1 mm 2 mps 743 mmHg 55%
    16:00 +20°C° 0.1 mm 2 mps 743 mmHg 55%
    17:00 +19°C° 0 mm 2 mps 743 mmHg 60%
    18:00 +19°C° 0 mm 1 mps 743 mmHg 65%
    19:00 +18°C° 0 mm 1 mps 743 mmHg 69%
    20:00 +16°C° 0.1 mm 1 mps 743 mmHg 73%
    21:00 +15°C° 0.1 mm 1 mps 743 mmHg 76%
    22:00 +14°C° 0.1 mm 1 mps 744 mmHg 79%
    23:00 +14°C° 0 mm 1 mps 744 mmHg 81%

    Tomorrow, 26 June, Tuesday

    Time Temperature Precipitation Wind Pressure Humidity
    00:00 +13°C° 0 mm 1 mps 743 mmHg 83%
    01:00 +13°C° 0 mm 1 mps 743 mmHg 85%
    02:00 +13°C° 0 mm 1 mps 743 mmHg 86%
    03:00 +12°C° 0 mm 1 mps 743 mmHg 88%
    04:00 +12°C° 0 mm 1 mps 743 mmHg 89%
    05:00 +14°C° 0 mm 2 mps 743 mmHg 85%
    06:00 +15°C° 0 mm 2 mps 743 mmHg 81%
    07:00 +17°C° 0 mm 2 mps 744 mmHg 77%
    08:00 +18°C° 0.3 mm 2 mps 744 mmHg 73%
    09:00 +19°C° 0.3 mm 2 mps 743 mmHg 69%
    10:00 +20°C° 0.3 mm 2 mps 743 mmHg 65%
    11:00 +20°C° 0.4 mm 3 mps 743 mmHg 63%
    12:00 +21°C° 0.4 mm 3 mps 743 mmHg 61%
    13:00 +22°C° 0.4 mm 3 mps 743 mmHg 59%
    14:00 +21°C° 0.7 mm 3 mps 742 mmHg 61%
    15:00 +21°C° 0.7 mm 3 mps 742 mmHg 64%
    16:00 +21°C° 0.7 mm 3 mps 742 mmHg 67%
    17:00 +20°C° 0.4 mm 3 mps 742 mmHg 71%
    18:00 +19°C° 0.4 mm 2 mps 742 mmHg 76%
    19:00 +18°C° 0.4 mm 2 mps 742 mmHg 80%
    20:00 +17°C° 0.3 mm 2 mps 742 mmHg 84%
    21:00 +15°C° 0.3 mm 2 mps 742 mmHg 88%
    22:00 +14°C° 0.3 mm 2 mps 742 mmHg 92%
    23:00 +14°C° 0.5 mm 2 mps 742 mmHg 93%

    Day after tomorrow, 27 June, Wednesday

    Time Temperature Precipitation Wind Pressure Humidity
    00:00 +13°C° 0.5 mm 2 mps 742 mmHg 94%
    01:00 +13°C° 0.5 mm 1 mps 742 mmHg 95%
    02:00 +13°C° 0 mm 2 mps 742 mmHg 96%
    03:00 +13°C° 0 mm 2 mps 742 mmHg 96%
    04:00 +13°C° 0 mm 2 mps 742 mmHg 97%
    05:00 +13°C° 0.1 mm 2 mps 742 mmHg 95%
    06:00 +14°C° 0.1 mm 2 mps 742 mmHg 94%
    07:00 +14°C° 0.1 mm 2 mps 742 mmHg 92%
    08:00 +15°C° 0.1 mm 2 mps 742 mmHg 90%
    09:00 +15°C° 0.1 mm 2 mps 742 mmHg 88%
    10:00 +16°C° 0.1 mm 2 mps 742 mmHg 85%
    11:00 +17°C° 0.1 mm 2 mps 742 mmHg 81%
    12:00 +18°C° 0.1 mm 3 mps 742 mmHg 76%
    13:00 +19°C° 0.1 mm 3 mps 742 mmHg 71%
    14:00 +19°C° 0.3 mm 3 mps 742 mmHg 72%
    15:00 +20°C° 0.3 mm 3 mps 742 mmHg 72%
    16:00 +20°C° 0.3 mm 3 mps 742 mmHg 73%
    17:00 +19°C° 0.2 mm 3 mps 742 mmHg 77%
    18:00 +18°C° 0.2 mm 3 mps 742 mmHg 82%
    19:00 +17°C° 0.2 mm 3 mps 741 mmHg 86%
    20:00 +17°C° 0.3 mm 3 mps 741 mmHg 89%
    21:00 +16°C° 0.3 mm 3 mps 741 mmHg 91%
    22:00 +16°C° 0.3 mm 3 mps 741 mmHg 94%
    23:00 +16°C° 0.4 mm 3 mps 741 mmHg 95%

    28 June, Thursday

    Time Temperature Precipitation Wind Pressure Humidity
    00:00 +16°C° 0.4 mm 3 mps 740 mmHg 95%
    01:00 +14°C° 0.4 mm 3 mps 740 mmHg 95%
    02:00 +14°C° 0.1 mm 3 mps 739 mmHg 96%
    03:00 +14°C° 0.1 mm 3 mps 739 mmHg 96%
    04:00 +14°C° 0.1 mm 3 mps 738 mmHg 97%
    05:00 +15°C° 0.6 mm 4 mps 737 mmHg 96%
    06:00 +15°C° 0.6 mm 5 mps 736 mmHg 95%
    07:00 +16°C° 0.6 mm 6 mps 736 mmHg 95%
    08:00 +16°C° 3 mm 6 mps 735 mmHg 95%
    09:00 +17°C° 3 mm 7 mps 734 mmHg 95%
    10:00 +17°C° 3 mm 7 mps 734 mmHg 95%
    11:00 +17°C° 1.2 mm 7 mps 733 mmHg 94%
    12:00 +18°C° 1.2 mm 7 mps 733 mmHg 93%
    13:00 +19°C° 1.2 mm 6 mps 733 mmHg 93%
    14:00 +20°C° 1 mm 6 mps 733 mmHg 91%
    15:00 +21°C° 1 mm 5 mps 733 mmHg 89%
    16:00 +21°C° 1 mm 5 mps 733 mmHg 87%
    17:00 +21°C° 0.2 mm 4 mps 733 mmHg 88%
    18:00 +21°C° 0.2 mm 3 mps 733 mmHg 88%
    19:00 +20°C° 0.2 mm 3 mps 733 mmHg 88%
    20:00 +19°C° 0.2 mm 2 mps 733 mmHg 90%
    21:00 +18°C° 0.2 mm 2 mps 733 mmHg 92%
    22:00 +18°C° 0.2 mm 1 mps 733 mmHg 94%
    23:00 +16°C° 0 mm 1 mps 733 mmHg 94%

    29 June, Friday

    Time Temperature Precipitation Wind Pressure Humidity
    00:00 +16°C° 0 mm 2 mps 733 mmHg 94%
    01:00 +15°C° 0 mm 2 mps 734 mmHg 94%
    02:00 +15°C° 0 mm 2 mps 734 mmHg 94%
    03:00 +15°C° 0 mm 2 mps 733 mmHg 94%
    04:00 +15°C° 0 mm 2 mps 733 mmHg 94%
    05:00 +16°C° 0 mm 2 mps 734 mmHg 89%
    06:00 +18°C° 0 mm 2 mps 734 mmHg 84%
    07:00 +19°C° 0 mm 2 mps 734 mmHg 79%
    08:00 +21°C° 0 mm 3 mps 734 mmHg 72%
    09:00 +22°C° 0 mm 3 mps 734 mmHg 65%
    10:00 +25°C° 0 mm 3 mps 734 mmHg 59%
    11:00 +25°C° 0 mm 3 mps 734 mmHg 57%
    12:00 +26°C° 0 mm 4 mps 733 mmHg 56%
    13:00 +26°C° 0 mm 4 mps 733 mmHg 54%
    14:00 +26°C° 0.2 mm 4 mps 733 mmHg 56%
    15:00 +26°C° 0.2 mm 4 mps 733 mmHg 59%
    16:00 +26°C° 0.2 mm 4 mps 733 mmHg 61%
    17:00 +23°C° 0.3 mm 4 mps 733 mmHg 68%
    18:00 +22°C° 0.3 mm 3 mps 733 mmHg 75%
    19:00 +21°C° 0.3 mm 3 mps 733 mmHg 81%
    20:00 +20°C° 0.8 mm 3 mps 733 mmHg 85%
    21:00 +19°C° 0.8 mm 3 mps 733 mmHg 89%
    22:00 +18°C° 0.8 mm 4 mps 733 mmHg 93%
    23:00 +17°C° 0.4 mm 3 mps 733 mmHg 94%

    30 June, Saturday

    Time Temperature Precipitation Wind Pressure Humidity
    00:00 +17°C° 0.4 mm 3 mps 733 mmHg 94%
    01:00 +17°C° 0.4 mm 3 mps 733 mmHg 95%
    02:00 +17°C° 0.3 mm 3 mps 733 mmHg 95%
    03:00 +17°C° 0.3 mm 3 mps 734 mmHg 95%
    04:00 +16°C° 0.3 mm 3 mps 734 mmHg 95%
    05:00 +16°C° 0.4 mm 3 mps 734 mmHg 94%
    06:00 +17°C° 0.4 mm 3 mps 734 mmHg 92%
    07:00 +17°C° 0.4 mm 3 mps 734 mmHg 91%
    08:00 +18°C° 0.2 mm 3 mps 735 mmHg 84%
    09:00 +19°C° 0.2 mm 3 mps 735 mmHg 78%
    10:00 +21°C° 0.2 mm 3 mps 735 mmHg 71%
    11:00 +22°C° 0.1 mm 3 mps 735 mmHg 66%
    12:00 +24°C° 0.1 mm 3 mps 736 mmHg 62%
    13:00 +25°C° 0.1 mm 3 mps 736 mmHg 57%
    14:00 +25°C° 0.1 mm 3 mps 736 mmHg 56%
    15:00 +25°C° 0.1 mm 3 mps 736 mmHg 55%
    16:00 +25°C° 0.1 mm 3 mps 736 mmHg 54%
    17:00 +24°C° 0 mm 2 mps 736 mmHg 60%
    18:00 +23°C° 0 mm 2 mps 736 mmHg 66%
    19:00 +22°C° 0 mm 1 mps 736 mmHg 72%
    20:00 +21°C° 0 mm 1 mps 736 mmHg 76%
    21:00 +19°C° 0 mm 1 mps 737 mmHg 81%
    22:00 +16°C° 0 mm 0 mps 737 mmHg 86%
    23:00 +15°C° 0 mm 0 mps 737 mmHg 87%
    Show more